Regional Weather Roundup
Issued by NWS Sterling, VA

Home | Current Version | Previous Version | Graphics & Text | Print | Product List | Glossary On
Versions: 1 2 3 4 5 6 7 8 9 10 11 12 13 14 15 16 17 18 19 20 21 22 23 24 25 26 27 28 29 30 31 32 33 34 35 36 37 38 39 40 41 42 43 44 45 46 47 48 49 50
000
ASUS41 KLWX 230110
RWRLWX

REGIONAL WEATHER ROUNDUP
NATIONAL WEATHER SERVICE BALTIMORE MD/WASHINGTON DC
800 PM EST SAT NOV 22 2014

Note: "FAIR" indicates few or no clouds below 12,000 feet
with no significant weather and/or obstructions to visibility.
 TC=TEMPERATURE CELSIUS

 * =Non NWS site. Station does not report precipitation (e.g. rain,
    snow, etc.), thunder, or fog.

DCZ001-MDZ009-015-VAZ040>042-051-053>054-230200-
WASHINGTON METRO

CITY           SKY/WX    TMP DP  RH WIND       PRES   REMARKS
WASHINGTON NAT CLEAR     42  26  53 S8        30.30F
DULLES         MOCLDY    43  16  33 S8        30.27F
ANDREWS AFB    FAIR      40  17  40 SW7       30.28F
FT BELVOIR     CLEAR     36  21  53 S2        30.30F
QUANTICO       CLEAR     41  24  51 SW6       30.31F
COLLEGE PARK*  PTCLDY    43  18  36 CALM      30.28F
LEESBURG*      CLOUDY    43  21  42 S8        30.27F
MANASSAS*      CLOUDY    41  18  38 S6        30.28F
GAITHERSBURG*  MOCLDY    43  16  33 S8        30.29F

$$

MDZ006>007-011-014-230200-
BALTIMORE METRO

CITY           SKY/WX    TMP DP  RH WIND       PRES   REMARKS
BWI AIRPORT    PTCLDY    42  15  33 CALM      30.27F
MD SCIENCE CTR   N/A     45  16  31 MISG      30.28F
MARTIN STATE   CLEAR     43  21  42 S3        30.30F
ANNAPOLIS      CLEAR     42  18  37 S6        30.30F

$$

MDZ012-015-019>023-230200-
MARYLAND EASTERN SHORE

CITY           SKY/WX    TMP DP  RH WIND       PRES   REMARKS
OCEAN CITY     CLEAR     42  29  59 SW12      30.33F
SALISBURY      CLEAR     40  24  53 SW5       30.33F
BAY BRIDGE AP*   N/A     45  21  39 S7        30.30F
CAMBRIDGE*     CLEAR     36  28  75 SE5       30.31F

$$

MDZ017>025-230200-
SOUTHERN MARYLAND

CITY           SKY/WX    TMP DP  RH WIND       PRES   REMARKS
PATUXENT RIVER CLEAR     42  19  39 VRB6      30.31F
ST INIGOES     CLEAR     42  21  43 S9        30.32F
LEONARDTOWN*   CLEAR     41  19  42 S5        30.32F

$$

MDZ003>005-230200-
NORTH CENTRAL MARYLAND

CITY           SKY/WX    TMP DP  RH WIND       PRES   REMARKS
FREDERICK*     CLEAR     46  14  27 S9        30.27F
HAGERSTOWN APT PTCLDY    41  17  38 SW5       30.22F
WESTMINSTER*   CLEAR     39  16  38 S7        30.24

$$

MDZ501>502-230200-
WESTERN MARYLAND

CITY           SKY/WX    TMP DP  RH WIND       PRES   REMARKS
OAKLAND*       PTCLDY    43  27  52 S10       30.15F
CUMBERLAND*    PTCLDY    37  19  48 CALM      30.23F

$$

VAZ025>031-230200-
SHENANDOAH VALLEY

CITY           SKY/WX    TMP DP  RH WIND       PRES   REMARKS
WINCHESTER*    PTCLDY    39  14  35 CALM      30.21F
FRONT ROYAL*   MOCLDY    45  23  42 S5        30.21S
LURAY*         FAIR      46  23  39 SW13      30.23F
NEW MARKET*    FAIR      44  20  38 SW6       30.24S
STAUNTON*      CLEAR     40  17  38 S6        30.27F
WAYNESBORO*    FAIR      39  17  40 S3        30.25F

$$

WVZ021-048>050-054>055-230200-
EASTERN WEST VIRGINIA PANHANDLE

CITY           SKY/WX    TMP DP  RH WIND       PRES   REMARKS
MARTINSBURG    MOCLDY    36  18  48 CALM      30.22F
PETERSBURG*    CLOUDY    45  21  38 CALM      30.19F

$$

VAZ036>039-050-230200-
CENTRAL FOOTHILLS

CITY           SKY/WX    TMP DP  RH WIND       PRES   REMARKS
CHARLOTTESVILL CLEAR     39  18  42 S9        30.28F
CULPEPER*      PTCLDY    43  16  33 S6        30.29S
ORANGE*        CLEAR     37  19  48 S5        30.31S
GORDONSVILLE*  FAIR      33  19  55 SW6       30.29F
WARRENTON*     FAIR      43  23  44 S5        30.27F

$$

VAZ055>057-230200-
NORTH AND CENTRAL PIEDMONT

CITY           SKY/WX    TMP DP  RH WIND       PRES   REMARKS
FREDERICKSBRG* CLEAR     43  18  36 S7        30.30F
STAFFORD*      CLEAR     41  13  31 CALM      30.34F

$$

NCZ024-NYZ072-PAZ021-071-VAZ022-071-230200-
OTHER REGIONAL OBSERVATIONS

CITY           SKY/WX    TMP DP  RH WIND       PRES   REMARKS
NEW YORK CITY  MOCLDY    44  18  35 W8G17     30.24F
PHILADELPHIA   CLOUDY    44  22  41 SW12      30.30F
PITTSBURGH     CLOUDY    46  30  53 S6        30.11F
ROANOKE        CLEAR     39  18  42 CALM      30.32S
RICHMOND       PTCLDY    35  19  52 CALM      30.34S
RALEIGH        PTCLDY    39  19  44 CALM      30.36S

$$

ANZ530>537-230200-
MARINE OBSERVATIONS

STATION/POSITION TIME  TEMP    WIND        PRES
                       AIR SEA DIR/SP/G
                 (UTC) (F)     (DEG/KT/KT) (MB)
THOMAS PT LIGHT  0100   45 47  200/ 15/ 16 1027.1F
BALT KEY BRIDGE  0100   44     170/  8/ 10 1025.4S
COVE POINT       0100   44     200/ 10/ 11 1026.3F
LEWISETTA        0100   43 43  220/ 13/ 16 1026.1F
SOLOMONS ISLAND  0100      48                N/A
PINEY POINT      0100          220/  8/ 10   N/A

$$



USA.gov is the U.S. government's official web portal to all federal, state and local government web resources and services.